ORBCOMM FM06 1 25118U 97084G 26262.76029265 .00000694 00000+0 22523-3 0 9995 2 25118 45.0147 317.3603 0002039 260.2191 192.6000 14.47755185508095 ORBCOMM FM04 1 25159U 98007C 26263.56485514 .00000508 00000+0 21890-3 0 9998 2 25159 107.9604 5.7208 0040173 162.2768 197.9783 14.35870528490280 ORBCOMM FM19 1 25415U 98046C 26263.30139074 .00000539 00000+0 21618-3 0 9997 2 25415 44.9929 151.3917 0004254 52.6049 41.1894 14.39643484470480 ORBCOMM FM20 1 25416U 98046D 26263.39201102 .00000360 00000+0 16412-3 0 9997 2 25416 44.9932 159.9469 0001746 21.0401 339.0519 14.38176541470494 ORBCOMM FM27 1 25481U 98053G 26263.00828492 .00000543 00000+0 21879-3 0 9998 2 25481 45.0044 244.9288 0002763 306.5040 53.5554 14.39282816463893 ORBCOMM FM32 1 25982U 99065C 26263.24503016 .00000380 00000+0 17372-3 0 9998 2 25982 45.0147 83.2504 0006535 167.6059 192.4951 14.37244317400768 ORBCOMM FM109 1 40086U 14040A 26262.81400723 .00000200 00000+0 78402-4 0 9996 2 40086 47.0047 4.0705 0002153 277.9096 82.1545 14.58921695648169 ORBCOMM FM110 1 41182U 15081D 26263.56922026 .00000257 00000+0 90452-4 0 9999 2 41182 47.0012 270.4045 0002403 179.9433 180.1454 14.58993243571553 ORBCOMM FM118 1 41183U 15081E 26263.05657564 .00000246 00000+0 88179-4 0 9997 2 41183 47.0035 273.1888 0001703 117.4394 242.6666 14.58975564571587 ORBCOMM FM112 1 41184U 15081F 26263.47082568 .00000307 00000+0 10107-3 0 9993 2 41184 46.9983 179.6447 0003467 289.7174 70.3337 14.58962474572866 ORBCOMM FM113 1 41185U 15081G 26263.45051443 .00000207 00000+0 79887-4 0 9990 2 41185 46.9999 180.1646 0002280 289.6794 70.3846 14.58935962572846 ORBCOMM FM108 1 41187U 15081J 26262.17806754 .00000256 00000+0 90285-4 0 9992 2 41187 47.0036 97.7680 0002579 268.6363 91.4227 14.58982303573808 ORBCOMM FM117 1 41188U 15081K 26262.89778601 .00000241 00000+0 87115-4 0 9993 2 41188 47.0002 92.9775 0003014 277.5082 82.5461 14.58964959573950 ORBCOMM FM116 1 41189U 15081L 26263.15213880 .00000303 00000+0 10014-3 0 9999 2 41189 47.0016 181.5736 0000736 151.8603 208.2323 14.58964254572804